Погода в Кирове

Погода в Кирове : погода сейчас, прогноз погоды и архив. Всё, что Вы хотите узнать о погоде в Кирове!

Хотите узнать прогноз погоды в Кирове? Тогда Вам сюда: Погода в Кирове

Поиск расширенной информации на нашем сайте:

Другие новости

Новости СМИ2

Главная страница сайта

Новости сайта

03.07.2017

Напоминаем, что на нашем специализированном сайте Метеоцентр.Азия вы можете получить высокодетализированные автоматические прогнозы погоды по пунктам России, СНГ и мира в авиационном формате (включающие направление и скорость ветра, видимость, явления погоды, количество и форму облачности, нижнюю и верхнюю границу облачности).


Погода в Кирове - сегодня

Время (UTC), дата Ветер
(°,м/с) 
Видим.   Явления Облачность Т
(°С)
Тd
(°С)
f(%) Тe
(°С)
Pmin
(гПа)
dP
(гПа)
Po
(мм)
O2
(г/м3)
Тmin Tmax R s Состояние
почвы
09 22.11.17 110 (В) 3-5{06}  20000 м    9/0 верхняя 
[Ci fib]
+0.1 -2 86 -2  1009.2  -0.1  742  299           
12 22.11.17 120 (ЮВ) 3-5{06}  20000 м    8/0 средняя, верхняя 
[Ac As|Ci fib]
-0.9 -2.7 88 -3  1008.6  -0.7  742  300           
15 22.11.17 110 (В) 3-6{06}  20000 м    10/0 средняя 
[Ac As]
-1.6 -3.5 87 -4  1007.8  -0.9  741  301    +0.1       
18 22.11.17 130 (ЮВ) 2-4{06}  20000 м    10/10 300 м 
[Sc]
-0.9 -2.4 90 -2  1007.6  -0.1  741  300           
21 22.11.17 100 (В) 2-2{04}  20000 м    10/10 300 м 
[Sc]
-0.6 -1.8 92 -1  1006.7  -0.8  740  299           
00 23.11.17 070 (В) 2-3{04}  20000 м  в посл. час дождь  10/10 300 м 
[Sc]
-0.2 -1.1 94 -1  1006.4  -0.3  740  298           
03 23.11.17 070 (В) 1-2{03}  20000 м    10/5 600 м средняя 
[Sc|As op]
-0.2 -1.1 94 1006.7  0.3  740  299  -1.6    0.5  равномерный
мокрый или
старый снег
100% 
06 23.11.17 100 (В) 2-3{04}  20000 м    10/8 600 м средняя 
[Sc|Ac lent]
-0.4 -1.3 94 -1  1007.4  0.6  741  299           
09 23.11.17 110 (В) 1-1{03}  20000 м    10/8 600 м средняя 
[Sc|Ac lent]
+0.1 -1.4 90 +1  1008.3  741  299           
12 23.11.17 350 (С) 2-3{03}  4000 м  дымка  10/8 600 м средняя 
[Sc|Ac und]
+0.4 -1.3 88 1009.1  0.8  742  299           
15 23.11.17 330 (СЗ) 1-2{03}  4000 м  слаб. снег  10/8 600 м средняя 
[Sc|As op]
+0.1 -0.5 96 +1  1011.2  2.1  744  300    +0.5  0.8     
18 23.11.17 320 (СЗ) 1-2{03}  4000 м  слаб. снег  10/8 600 м средняя 
[Sc|As op]
+0.2 -0.1 98 +1  1013.2  1.9  745  300           
21 23.11.17 330 (СЗ) 2-5{05}  20000 м  слаб. снег  10/8 600 м средняя 
[Sc|As op]
-0.2 -0.5 98 -1  1015.6  2.3  747  301           
00 24.11.17 320 (СЗ) 2-4{08}  20000 м  {снег}  10/8 600 м средняя 
[Sc|As op]
-2.8 -4.1 91 -4  1018.6  2.8  749  305           
03 24.11.17 330 (СЗ) 2-7{07}  20000 м  слаб. снег  10/8 600 м средняя 
[Sc|As op]
-5.2 -6.6 90 -7  1021.4  2.6  751  309  -5.3    0.0  равномерный
сухой снег
100% 
06 24.11.17 340 (С) 3-6{08}  20000 м  слаб. снег  10/9 600 м средняя 
[Sc|As op]
-6.3 -7.8 89 -9  1023.3  1.7  752  311  -6.3         
09 24.11.17 350 (С) 3-6{07}  20000 м  {снег}  10/8 600 м средняя 
[Sc|As op]
-6.1 -8 86 -9  1023.7  1.2  753  311           
12 24.11.17 360 (С) 3-5{07}  20000 м  {снег}  10/10 600 м 
[Sc]
-7 -9.1 85 -10  1025.1  0.5  753  312           
15 24.11.17 050 (СВ) 3-5{06}  20000 м    10/10 600 м 
[Sc]
-7.8 -10 84 -11  1025.4  0.3  754  314    -5.2  0.0     
18 24.11.17 030 (СВ) 2-5{06}  20000 м  слаб. снег  10/9 600 м средняя 
[Sc|As op]
-8.6 -10.5 86 -10  1025.3  -0.2  753  314           
21 24.11.17 050 (СВ) 2-5{06}  20000 м  слаб. снег  10/9 600 м средняя 
[Sc|As op]
-8.6 -10.5 86 -10  1025.1  -0.2  753  314           
00 25.11.17 050 (СВ) 2-3{06}  20000 м  {снег}  8/8 600 м 
[Sc]
-8.4 -9.9 89 -10  1025  -0.1  753  314           
03 25.11.17 050 (СВ) 2-4{04}  20000 м    3/3 600 м верхняя 
[Sc|Ci fib]
-9.4 -11.5 85 -11  1024.6  -0.5  753  315  -9.5    0.0  равномерный
сухой снег
100% 
06 25.11.17 080 (В) 2-4{05}  20000 м    10/3 1000 м средняя, верхняя 
[Sc|Ac As|Ci fib]
-9.2 -11.2 85 -11  1024.8  0.2  753  315           
09 25.11.17 110 (В) 2-3{04}  20000 м    10/0 средняя 
[Ac As]
-7.2 -9.7 82 -9  1024.9  0.3  753  313           
Время (UTC), дата Ветер
(°,м/с) 
Видим.   Явления Облачность Т
(°С)
Тd
(°С)
f(%) Тe
(°С)
Pmin
(гПа)
dP
(гПа)
Po
(мм)
O2
(г/м3)
Тmin Tmax R s Состояние
почвы

Для получения пояснительной информации подведите курсор к названию столбца.

ПОГОДА в Кирове - архив

Всё, что Вы хотите узнать о погоде в Кирове - удобно и подробно!

Выберите нужную дату (начиная с 1 января 2015* года) и нажмите кнопку "Найти".
Будут отображены архивные сводки погоды по пункту Киров, начиная с указанной даты.


Отображать данные в формате CSV (для использования в таблицах Excel)


Внимание! Наш архив погоды предназначен исключительно для личного некоммерческого использования в познавательных целях. Если Вам необходимы официальные справки о состоянии погоды (для производственных, юридических, коммерческих и т.п. целей), обращайтесь в органы Росгидромета.

*Примечание: данная дата относится к архиву по метеостанциям СССР (Россия, СНГ, Балтия).
Архив по метеостанциям Зарубежной Европы и Азии (кроме Китая) хранится 10 дней, по другим регионам земного шара (Китай, Африка, Америка, Австралия, Океания) - 1 день.

Киров - район местоположения метеостанции


Название, широта, долгота, высота метеостанции:
Киров 58.6°ш. 49.6°д. 158 м над ур. моря [Российская Федерация]

Дополнительная информация

В oтличие oт бoльшинства пoгoдных сайтoв мы публикуем пoдрoбную метеoинфoрмацию в детальнoм прoфессиoнальнoм фoрмате.

Характеристики температуры и влажнoсти вoздуха измеряются на высoте 2 м в тени вдали oт зданий и деревьев.
Скoрoсть ветра измеряется на высoте 10 м (на урoвне рoста челoвека скoрoсть ветра ниже в 1.5-2 раза). Если метеoстанция нахoдится в гoрoде или в лесу, тo скoрoсть ветра занижена на 2-4 м/с пo сравнению с oткрытым местoм. Скoрoсть ветра над акватoриями крупных рек и oзёр, а также на вершинах хoлмoв на 2-5 м/с выше, чем в oбычных услoвиях.
Атмoсфернoе давление в разных тoчках местнoсти мoжет значительнo oтличаться oт давления на метеoстанции, в зависимoсти oт услoвий рельефа (при пoдъёме на 10 м давление пoнижается примернo на 1 мм рт.ст.).